STARLINK-37454, 69375

Orbit data source: Space-Track

STARLINK-37454, 69375 is a payload satellite owned by SpaceX/Seattle (US) in LEO that was launched on Thu, 04 Jun 2026 UTC via an FALCON 9 launch vehicle from the Air Force Eastern Test Range (AFETR). Payload-class satellites include a variety of spacecraft equipped with specific instruments for various scientific and technological missions. These include communications satellites like Starlink; space stations such as the ISS; scientific satellites like the Hubble; Earth observation satellites from companies like Planet Labs, Umbra, and HawkEye 360; GPS; miniature CubeSats for education and research; and military/defense satellites.

Loading next visibility...
Identifier
69375, 2026-123Y
Orbit
LEO
Country
Flag of USUS
Related business
Manufacturer
SpaceX/Seattle
Mission
Operational spacecraft
Bus & Motor
STARLINK V2MO, Unknown motor
Mass
575 kg wet, ~530 kg dry
Launch date (UTC)
2026-06-04 (2 months ago)
Launch vehicle
FALCON 9
Launch site
Air Force Eastern Test Range (AFETR)
Object type
Payload
Rocket body
Debris
Shape & HBR
BOX + PAN, 17.7 m
Radar Cross Section
Large (>1 m²)

Expand to show TLE details & history
Last TLE update: 3 days ago

TLE from 3 days ago
0 STARLINK-37454
1 69375U 26123Y   26205.56234187  .00225975  00000-0  14320-2 0  9997
2 69375  53.1579  54.8071 0001492 187.7490 172.3508 15.75355304  7943
Epoch: 2026-07-24T13:29Z
TLE epoch observation values (Epoch: 2026-07-24T13:29:46.337Z)
Latitude
0.00001°
Longitude
-89.92316°
Altitude
345.531 km
Speed
7.702 km/s
True Right ascension
03h 39m 13s
True Declination
0° 00' 00"
Sunlit
Object was in daylight at epoch
Visualization orbit readout
Latitude
Unknown
Longitude
Unknown
Altitude
Unknown
Speed
Unknown
Apparent Right ascension
Unknown
Apparent Declination
Unknown
Sunlit
N/A
Visualization observer readout
Local Sidereal Time
00:01:14
Azimuth
Unknown
Elevation
Unknown
Doppler factor
Unknown
Orbital elements
Apogee altitude
344.885 km
Perigee altitude
342.879 km
Semi-major axis
6,722.019 km
Eccentricity
0.00015
Inclination
53.1579°
RAAN
54.8071°
Arg. of periapsis
187.749°
True anomaly
172.35308°
Mean anomaly
172.3508°
Eccentric anomaly
172.35194°
Mean motion
3.93816 °/min
Orbital period
91.41 mins
BSTAR
0.001432
Loading maneuver chart data...
Computing Atmospheric mass density...
Loading historical data...
Loading historical data...
Loading historical data...
Loading historical data...
Loading historical data...
Loading historical data...
Loading historical data...

Documentation

Showing up to 5 results
|